TimeCDT,TemperatureF,Dew PointF,Humidity,Sea Level PressureIn,VisibilityMPH,Wind Direction,Wind SpeedMPH,Gust SpeedMPH,PrecipitationIn,Events,Conditions,WindDirDegrees,DateUTC
12:15 AM,70.0,50.0,49,30.18,10.0,SE,5.8,-,N/A,,Clear,140,2013-09-05 05:15:00
12:35 AM,67.6,50.0,53,30.20,10.0,Calm,Calm,-,N/A,,Clear,0,2013-09-05 05:35:00
12:55 AM,68.0,49.3,51,30.20,10.0,Calm,Calm,-,N/A,,Clear,0,2013-09-05 05:55:00
1:15 AM,67.5,50.2,54,30.20,10.0,Calm,Calm,-,N/A,,Clear,0,2013-09-05 06:15:00
1:35 AM,65.3,49.1,56,30.20,10.0,Calm,Calm,-,N/A,,Clear,0,2013-09-05 06:35:00
1:55 AM,63.7,48.7,58,30.19,10.0,Calm,Calm,-,N/A,,Clear,0,2013-09-05 06:55:00
2:15 AM,66.2,49.3,54,30.19,10.0,Calm,Calm,-,N/A,,Clear,0,2013-09-05 07:15:00
2:35 AM,63.9,48.9,58,30.18,10.0,Calm,Calm,-,N/A,,Clear,0,2013-09-05 07:35:00
2:55 AM,64.9,49.6,58,30.18,10.0,Calm,Calm,-,N/A,,Clear,0,2013-09-05 07:55:00
3:15 AM,67.1,49.6,53,30.18,10.0,Calm,Calm,-,N/A,,Clear,0,2013-09-05 08:15:00
3:35 AM,67.5,48.9,51,30.17,10.0,Calm,Calm,-,N/A,,Clear,0,2013-09-05 08:35:00
3:55 AM,67.5,48.2,50,30.17,10.0,Calm,Calm,-,N/A,,Clear,0,2013-09-05 08:55:00
4:15 AM,67.5,48.4,50,30.17,10.0,Calm,Calm,-,N/A,,Clear,0,2013-09-05 09:15:00
4:35 AM,61.9,48.4,61,30.17,10.0,Calm,Calm,-,N/A,,Clear,0,2013-09-05 09:35:00
4:55 AM,61.2,47.8,62,30.18,10.0,Calm,Calm,-,N/A,,Clear,0,2013-09-05 09:55:00
5:15 AM,61.2,48.7,64,30.17,10.0,Calm,Calm,-,N/A,,Clear,0,2013-09-05 10:15:00
5:35 AM,60.3,49.3,67,30.18,10.0,WNW,3.5,-,N/A,,Clear,290,2013-09-05 10:35:00
5:55 AM,59.9,50.9,72,30.18,10.0,WNW,4.6,-,N/A,,Clear,290,2013-09-05 10:55:00
6:15 AM,59.0,50.9,74,30.18,10.0,NW,3.5,-,N/A,,Clear,310,2013-09-05 11:15:00
6:35 AM,59.9,50.9,72,30.18,10.0,WNW,3.5,-,N/A,,Clear,300,2013-09-05 11:35:00
6:55 AM,59.0,50.5,73,30.18,10.0,WNW,3.5,-,N/A,,Clear,300,2013-09-05 11:55:00
7:15 AM,57.4,49.8,76,30.20,10.0,WNW,3.5,-,N/A,,Clear,300,2013-09-05 12:15:00
7:35 AM,57.4,49.6,75,30.20,10.0,WNW,4.6,-,N/A,,Clear,300,2013-09-05 12:35:00
7:55 AM,59.9,51.3,73,30.20,10.0,NW,3.5,-,N/A,,Clear,320,2013-09-05 12:55:00
8:15 AM,61.7,50.7,67,30.20,10.0,Calm,Calm,-,N/A,,Clear,0,2013-09-05 13:15:00
8:35 AM,67.5,51.3,56,30.20,10.0,NW,3.5,-,N/A,,Clear,320,2013-09-05 13:35:00
8:55 AM,70.0,49.6,48,30.21,10.0,Calm,Calm,-,N/A,,Clear,0,2013-09-05 13:55:00
9:15 AM,75.2,51.6,44,30.21,10.0,Calm,Calm,-,N/A,,Clear,0,2013-09-05 14:15:00
9:35 AM,75.2,48.4,39,30.21,10.0,Calm,Calm,-,N/A,,Clear,0,2013-09-05 14:35:00
9:55 AM,77.5,47.1,34,30.22,10.0,WNW,3.5,-,N/A,,Clear,300,2013-09-05 14:55:00
10:15 AM,80.1,45.9,30,30.22,10.0,Calm,Calm,-,N/A,,Clear,0,2013-09-05 15:15:00
10:35 AM,81.9,45.3,28,30.22,10.0,South,3.5,-,N/A,,Clear,170,2013-09-05 15:35:00
10:55 AM,82.9,45.5,27,30.23,10.0,South,3.5,-,N/A,,Clear,170,2013-09-05 15:55:00
11:15 AM,84.4,46.8,27,30.23,10.0,SE,4.6,-,N/A,,Clear,140,2013-09-05 16:15:00
11:35 AM,88.5,46.6,23,30.23,10.0,SE,3.5,-,N/A,,Clear,140,2013-09-05 16:35:00
11:55 AM,90.1,46.0,22,30.23,10.0,South,6.9,-,N/A,,Clear,170,2013-09-05 16:55:00
12:15 PM,90.1,45.0,21,30.23,10.0,SE,5.8,-,N/A,,Clear,130,2013-09-05 17:15:00
12:35 PM,90.1,43.9,20,30.23,10.0,Calm,Calm,-,N/A,,Clear,0,2013-09-05 17:35:00
12:55 PM,90.1,45.5,21,30.22,10.0,SE,5.8,-,N/A,,Clear,140,2013-09-05 17:55:00
1:15 PM,90.1,45.0,21,30.22,10.0,East,6.9,-,N/A,,Clear,100,2013-09-05 18:15:00
1:35 PM,90.1,45.3,21,30.21,10.0,East,6.9,-,N/A,,Clear,100,2013-09-05 18:35:00
1:55 PM,91.2,45.7,21,30.21,10.0,East,11.5,-,N/A,,Clear,90,2013-09-05 18:55:00
2:15 PM,90.7,39.7,17,30.20,10.0,East,10.4,-,N/A,,Clear,90,2013-09-05 19:15:00
2:35 PM,90.1,39.4,17,30.20,10.0,East,4.6,-,N/A,,Clear,100,2013-09-05 19:35:00
2:55 PM,90.7,39.2,16,30.18,10.0,East,9.2,-,N/A,,Clear,100,2013-09-05 19:55:00
3:15 PM,91.8,40.1,16,30.18,10.0,Calm,Calm,-,N/A,,Clear,0,2013-09-05 20:15:00
3:35 PM,91.2,39.2,16,30.18,10.0,SE,4.6,-,N/A,,Clear,130,2013-09-05 20:35:00
3:55 PM,92.3,39.4,16,30.17,10.0,ESE,9.2,-,N/A,,Clear,110,2013-09-05 20:55:00
4:15 PM,90.5,38.3,16,30.16,10.0,Calm,Calm,-,N/A,,Clear,0,2013-09-05 21:15:00
4:35 PM,94.5,40.8,16,30.16,10.0,SE,5.8,-,N/A,,Clear,140,2013-09-05 21:35:00
4:55 PM,92.5,39.2,16,30.16,10.0,Calm,Calm,-,N/A,,Clear,0,2013-09-05 21:55:00
5:15 PM,92.8,38.3,15,30.15,10.0,SE,9.2,-,N/A,,Clear,140,2013-09-05 22:15:00
5:35 PM,91.0,37.4,15,30.15,10.0,ESE,3.5,-,N/A,,Clear,110,2013-09-05 22:35:00
5:55 PM,91.0,36.7,15,30.15,10.0,SE,4.6,-,N/A,,Clear,140,2013-09-05 22:55:00
6:15 PM,90.9,36.7,15,30.15,10.0,SSE,5.8,-,N/A,,Clear,150,2013-09-05 23:15:00
6:35 PM,90.1,35.6,15,30.15,10.0,SE,3.5,-,N/A,,Clear,130,2013-09-05 23:35:00
6:55 PM,90.1,39.0,17,30.15,10.0,SSE,6.9,-,N/A,,Clear,160,2013-09-05 23:55:00
7:15 PM,90.1,41.5,18,30.14,10.0,SSE,3.5,-,N/A,,Clear,150,2013-09-06 00:15:00
7:35 PM,84.6,42.8,23,30.15,10.0,South,5.8,-,N/A,,Clear,170,2013-09-06 00:35:00
7:55 PM,81.5,45.0,28,30.15,10.0,South,4.6,-,N/A,,Clear,180,2013-09-06 00:55:00
8:15 PM,80.1,43.7,28,30.15,10.0,SSW,4.6,-,N/A,,Clear,200,2013-09-06 01:15:00
8:35 PM,78.8,43.9,29,30.15,10.0,SSW,4.6,-,N/A,,Clear,200,2013-09-06 01:35:00
8:55 PM,76.8,44.4,32,30.16,10.0,SSW,4.6,-,N/A,,Clear,200,2013-09-06 01:55:00
9:15 PM,77.5,43.9,30,30.16,10.0,SSW,3.5,-,N/A,,Clear,210,2013-09-06 02:15:00
9:35 PM,75.2,43.5,32,30.17,10.0,SSW,3.5,-,N/A,,Clear,210,2013-09-06 02:35:00
9:55 PM,75.2,44.2,33,30.17,10.0,SSW,3.5,-,N/A,,Clear,210,2013-09-06 02:55:00
10:15 PM,75.2,45.1,34,30.18,7.0,SSW,3.5,-,N/A,,Clear,210,2013-09-06 03:15:00
10:35 PM,73.4,44.8,36,30.18,10.0,South,3.5,-,N/A,,Clear,190,2013-09-06 03:35:00
10:55 PM,70.0,44.4,40,30.19,10.0,Calm,Calm,-,N/A,,Clear,0,2013-09-06 03:55:00
11:15 PM,70.2,43.7,38,30.19,10.0,Calm,Calm,-,N/A,,Clear,0,2013-09-06 04:15:00
11:35 PM,70.0,46.6,43,30.19,10.0,ESE,4.6,-,N/A,,Clear,120,2013-09-06 04:35:00
11:55 PM,70.0,49.6,48,30.18,10.0,ESE,3.5,-,N/A,,Clear,110,2013-09-06 04:55:00